Weather History for KMOB - April, 2014

Change the Weather History Date:

Thursday, April 17, 2014

  Actual Average Record
Temperature  
Mean Temperature 58 °F 67 °F  
Max Temperature 71 °F 78 °F 89 °F (2006)
Min Temperature 44 °F 56 °F 42 °F (1983)
Degree Days  
Heating Degree Days 7 2  
Month to date heating degree days 59 48  
Since 1 July heating degree days 2038 1679  
Cooling Degree Days 0 3  
Month to date cooling degree days 30 44  
Year to date cooling degree days 43 99  
Growing Degree Days 8 (Base 50)    
Moisture  
Dew Point 53 °F    
Average Humidity 79    
Maximum Humidity 100    
Minimum Humidity 57    
Precipitation  
Precipitation 0.48 in 0.16 in 2.12 in (1912)
Month to date precipitation 5.88 2.84  
Year to date precipitation 19.50 19.75  
Sea Level Pressure  
Sea Level Pressure 30.19 in    
Wind  
Wind Speed 8 mph (ENE)    
Max Wind Speed 16 mph    
Max Gust Speed 21 mph    
Visibility 9 miles    
Events Rain    
T = Trace of Precipitation, MM = Missing Value Source: NWS Daily Summary

Daily Weather History Graph

Daily Weather History Graph

Search for Another Location

Airport or City:

Trip Planner

Search our weather history database for the weather conditions in past years. The results will help you decide how hot, cold, wet, or windy it might be!

Date:

Astronomy

Apr. 17, 2014 Rise Set
Actual Time 6:23 AM CDT 7:22 PM CDT
Civil Twilight 5:58 AM CDT 7:47 PM CDT
Nautical Twilight 5:29 AM CDT 8:16 PM CDT
Astronomical Twilight 4:58 AM CDT 8:46 PM CDT
Moon 9:59 PM CDT (4/17) 8:01 AM CDT (4/17)
Length of Visible Light 13h 48m
Length of Day
12h 59m
Waning Gibbous, 93% of the Moon is Illuminated
Apr 17
Waning Gibbous
Apr 22
Last Quarter
Apr 29
New
May 6
First Quarter
May 14
Full

Hourly Weather History & Observations

Time (CDT) Temp. Windchill Dew Point Humidity Pressure Visibility Wind Dir Wind Speed Gust Speed Precip Events Conditions
12:56 AM 45.0 °F - 44.1 °F 97% 30.18 in 10.0 mi Calm Calm - N/A   Clear
1:56 AM 44.1 °F 42.5 °F 44.1 °F 100% 30.17 in 10.0 mi North 3.5 mph - N/A   Clear
2:56 AM 46.9 °F - 46.9 °F 100% 30.17 in 10.0 mi Variable 3.5 mph - N/A   Mostly Cloudy
3:56 AM 50.0 °F - 48.0 °F 93% 30.17 in 10.0 mi NE 6.9 mph - N/A   Overcast
4:56 AM 50.0 °F - 46.9 °F 89% 30.17 in 10.0 mi ENE 8.1 mph - N/A   Overcast
5:56 AM 51.1 °F - 48.0 °F 89% 30.17 in 7.0 mi ENE 9.2 mph - N/A   Overcast
6:09 AM 52.0 °F - 48.9 °F 89% 30.18 in 7.0 mi ENE 8.1 mph - N/A   Overcast
6:56 AM 53.1 °F - 48.9 °F 86% 30.19 in 7.0 mi ENE 9.2 mph - N/A   Overcast
7:15 AM 53.1 °F - 50.0 °F 89% 30.21 in 10.0 mi ENE 11.5 mph - N/A   Overcast
7:56 AM 54.0 °F - 50.0 °F 86% 30.23 in 7.0 mi ENE 9.2 mph - N/A   Overcast
8:56 AM 55.9 °F - 51.1 °F 84% 30.24 in 7.0 mi ENE 8.1 mph - N/A   Overcast
9:36 AM 57.0 °F - 51.1 °F 81% 30.24 in 7.0 mi ENE 13.8 mph - N/A   Overcast
9:43 AM 57.0 °F - 51.1 °F 81% 30.25 in 7.0 mi ENE 13.8 mph - N/A   Overcast
9:56 AM 59.0 °F - 52.0 °F 78% 30.24 in 7.0 mi ENE 15.0 mph - N/A   Overcast
10:56 AM 62.6 °F - 53.6 °F 72% 30.23 in 10.0 mi ENE 11.5 mph - N/A   Overcast
11:56 AM 66.2 °F - 55.4 °F 68% 30.23 in 10.0 mi East 8.1 mph - N/A   Overcast
12:56 PM 69.1 °F - 55.9 °F 63% 30.20 in 10.0 mi East 9.2 mph - N/A   Overcast
1:56 PM 71.1 °F - 55.9 °F 59% 30.19 in 10.0 mi Variable 5.8 mph - N/A   Overcast
2:56 PM 70.0 °F - 57.0 °F 63% 30.17 in 10.0 mi ENE 9.2 mph - N/A   Mostly Cloudy
3:56 PM 70.0 °F - 57.0 °F 63% 30.16 in 10.0 mi ESE 11.5 mph - N/A   Overcast
4:56 PM 69.1 °F - 55.9 °F 63% 30.15 in 10.0 mi SE 8.1 mph - N/A   Overcast
5:56 PM 68.0 °F - 57.0 °F 68% 30.17 in 10.0 mi Calm Calm - N/A   Overcast
6:56 PM 66.9 °F - 57.0 °F 70% 30.15 in 10.0 mi NE 8.1 mph - N/A   Overcast
7:56 PM 64.9 °F - 57.0 °F 75% 30.17 in 8.0 mi ENE 5.8 mph - N/A   Overcast
8:56 PM 64.0 °F - 57.9 °F 80% 30.17 in 10.0 mi NE 8.1 mph - N/A   Overcast
9:56 PM 61.0 °F - 59.0 °F 93% 30.19 in 8.0 mi ENE 8.1 mph - 0.06 in Rain Rain
10:56 PM 60.1 °F - 60.1 °F 100% 30.17 in 6.0 mi ENE 10.4 mph - 0.12 in Rain Light Rain
11:56 PM 60.1 °F - 60.1 °F 100% 30.17 in 4.0 mi ENE 10.4 mph - 0.13 in Rain Rain